EA7RX-13 Weather Reports


Display with metric or nautical units.
time (UTC)temp
F
wind
direction
speed
MPH
gust
MPH
rain 1hr
in
rain 24hr
in
rain mn
in
humidity
%
barometer
mb
20260905050633 75 0.0 0.0 0.00 0.00 0.00 63 1017.8
20260905045633 76 0.0 0.0 0.00 0.00 0.00 59 1017.8
20260905044633 76 0.0 0.0 0.00 0.00 0.00 59 1017.8
20260905043633 76 0.0 0.0 0.00 0.00 0.00 58 1017.7
20260905042633 76 0.0 0.0 0.00 0.00 0.00 60 1017.7
20260905041633 76 0.0 0.0 0.00 0.00 0.00 62 1017.9
20260905040633 77 0.0 0.0 0.00 0.00 0.00 63 1017.8
20260905035633 76 0.0 0.0 0.00 0.00 0.00 65 1017.8
20260905034633 77 0.0 0.0 0.00 0.00 0.00 61 1017.9
20260905033633 77 0.0 0.0 0.00 0.00 0.00 58 1017.8
20260905032633 77 0.0 0.0 0.00 0.00 0.00 59 1017.6
20260905031633 78 0.0 0.0 0.00 0.00 0.00 58 1017.6
20260905030633 78 0.0 0.0 0.00 0.00 0.00 56 1017.6
20260905025633 79 0.0 0.0 0.00 0.00 0.00 53 1017.7
20260905024633 79 0.0 0.0 0.00 0.00 0.00 56 1017.7
20260905023633 80 0.0 0.0 0.00 0.00 0.00 52 1017.5
20260905022633 80 0.0 0.0 0.00 0.00 0.00 51 1017.7
20260905021633 80 0.0 0.0 0.00 0.00 0.00 50 1017.6
20260905020633 80 0.0 0.0 0.00 0.00 0.00 49 1017.6
20260905015633 81 0.0 0.0 0.00 0.00 0.00 50 1017.4
20260905014633 81 0.0 0.0 0.00 0.00 0.00 46 1017.2
20260905013633 82 0.0 0.0 0.00 0.00 0.00 46 1017.1
20260905012633 81 0.0 0.0 0.00 0.00 0.00 47 1016.9
20260905011633 81 0.0 0.0 0.00 0.00 0.00 48 1016.8
20260905010633 81 0.0 0.0 0.00 0.00 0.00 48 1016.9
20260905005633 82 0.0 0.0 0.00 0.00 0.00 48 1017.0
20260905004633 82 0.0 0.0 0.00 0.00 0.00 46 1017.1
20260905003633 82 0.0 0.0 0.00 0.00 0.00 46 1017.3
20260905002633 83 0.0 0.0 0.00 0.00 0.00 44 1017.4
20260905001633 82 0.0 0.0 0.00 0.00 0.00 46 1017.4
20260905000633 84 0.0 0.0 0.00 0.00 0.00 42 1017.2
20260904235633 83 0.0 0.0 0.00 0.00 0.00 43 1017.2
20260904234633 83 0.0 0.0 0.00 0.00 0.00 43 1017.2
20260904233633 83 0.0 0.0 0.00 0.00 0.00 42 1017.2
20260904232633 84 0.0 0.0 0.00 0.00 0.00 41 1017.1
20260904231633 84 0.0 0.0 0.00 0.00 0.00 41 1017.1
20260904230633 84 0.0 0.0 0.00 0.00 0.00 41 1017.1
20260904225633 83 0.0 0.0 0.00 0.00 0.00 42 1017.0
20260904224633 84 0.0 0.0 0.00 0.00 0.00 41 1017.0
20260904223633 83 0.0 0.0 0.00 0.00 0.00 41 1016.9
20260904222633 84 0.0 0.0 0.00 0.00 0.00 42 1016.8
20260904221633 84 0.0 0.0 0.00 0.00 0.00 42 1016.8
20260904220633 84 0.0 0.0 0.00 0.00 0.00 43 1016.8
20260904215633 84 0.0 0.0 0.00 0.00 0.00 41 1016.9
20260904214633 84 0.0 0.0 0.00 0.00 0.00 42 1016.9
20260904213633 84 0.0 0.0 0.00 0.00 0.00 45 1017.0
20260904212633 84 0.0 0.0 0.00 0.00 0.00 42 1017.0
20260904211633 84 0.0 0.0 0.00 0.00 0.00 43 1017.0
20260904210633 84 0.0 0.0 0.00 0.00 0.00 44 1017.0
20260904205633 85 0.0 0.0 0.00 0.00 0.00 40 1016.9
20260904204633 85 0.0 0.0 0.00 0.00 0.00 44 1016.8
20260904203633 85 0.0 0.0 0.00 0.00 0.00 46 1016.5
20260904202633 84 0.0 0.0 0.00 0.00 0.00 47 1016.2
20260904201633 84 0.0 0.0 0.00 0.00 0.00 51 1016.2
20260904200633 85 0.0 0.0 0.00 0.00 0.00 46 1016.0
20260904195633 85 0.0 0.0 0.00 0.00 0.00 51 1015.9
20260904194633 85 0.0 0.0 0.00 0.00 0.00 50 1015.8
20260904193632 86 0.0 0.0 0.00 0.00 0.00 50 1015.6
20260904192633 86 0.0 0.0 0.00 0.00 0.00 50 1015.4
20260904191633 87 0.0 0.0 0.00 0.00 0.00 44 1015.1
20260904190633 88 0.0 0.0 0.00 0.00 0.00 44 1014.8
20260904185632 88 0.0 0.0 0.00 0.00 0.00 48 1014.7
20260904184632 89 0.0 0.0 0.00 0.00 0.00 46 1014.7
20260904183632 91 0.0 0.0 0.00 0.00 0.00 45 1014.4
20260904182632 93 0.0 0.0 0.00 0.00 0.00 41 1014.3
20260904181633 94 0.0 0.0 0.00 0.00 0.00 40 1014.2
20260904180632 95 0.0 0.0 0.00 0.00 0.00 38 1014.1
20260904175632 97 0.0 0.0 0.00 0.00 0.00 39 1014.0
20260904174633 97 0.0 0.0 0.00 0.00 0.00 40 1013.9
20260904173632 98 0.0 0.0 0.00 0.00 0.00 42 1014.0
20260904172632 97 0.0 0.0 0.00 0.00 0.00 42 1014.1
20260904171632 96 0.0 0.0 0.00 0.00 0.00 42 1014.1
20260904170632 96 0.0 0.0 0.00 0.00 0.00 41 1014.2
20260904165632 96 0.0 0.0 0.00 0.00 0.00 42 1014.2
20260904164632 97 0.0 0.0 0.00 0.00 0.00 40 1014.1
20260904163632 97 0.0 0.0 0.00 0.00 0.00 40 1014.1
20260904162632 98 0.0 0.0 0.00 0.00 0.00 34 1013.9
20260904161632 100 0.0 0.0 0.00 0.00 0.00 34 1013.9
20260904160632 101 0.0 0.0 0.00 0.00 0.00 38 1013.9
20260904155632 100 0.0 0.0 0.00 0.00 0.00 36 1014.1
20260904154632 102 0.0 0.0 0.00 0.00 0.00 35 1014.1
20260904153632 103 0.0 0.0 0.00 0.00 0.00 36 1014.0
20260904152632 104 0.0 0.0 0.00 0.00 0.00 31 1013.9
20260904151632 104 0.0 0.0 0.00 0.00 0.00 27 1014.1
20260904150632 106 0.0 0.0 0.00 0.00 0.00 33 1014.2
20260904145632 106 0.0 0.0 0.00 0.00 0.00 26 1014.1
20260904144632 106 0.0 0.0 0.00 0.00 0.00 26 1014.4
20260904143634 105 0.0 0.0 0.00 0.00 0.00 26 1014.6
20260904142632 106 0.0 0.0 0.00 0.00 0.00 26 1014.7
20260904141632 105 0.0 0.0 0.00 0.00 0.00 28 1015.0
20260904140632 105 0.0 0.0 0.00 0.00 0.00 28 1015.2
20260904135632 104 0.0 0.0 0.00 0.00 0.00 29 1015.5
20260904134632 103 0.0 0.0 0.00 0.00 0.00 30 1015.8
20260904133632 101 0.0 0.0 0.00 0.00 0.00 30 1016.0
20260904132632 102 0.0 0.0 0.00 0.00 0.00 30 1016.0
20260904131632 102 0.0 0.0 0.00 0.00 0.00 29 1016.1
20260904130632 103 0.0 0.0 0.00 0.00 0.00 28 1016.1
20260904125632 104 0.0 0.0 0.00 0.00 0.00 28 1016.0
20260904124632 104 0.0 0.0 0.00 0.00 0.00 28 1016.2
20260904123632 103 0.0 0.0 0.00 0.00 0.00 31 1016.4
20260904122632 104 0.0 0.0 0.00 0.00 0.00 32 1016.4
20260904121632 102 0.0 0.0 0.00 0.00 0.00 30 1016.6
20260904120632 102 0.0 0.0 0.00 0.00 0.00 30 1016.7
20260904115632 102 0.0 0.0 0.00 0.00 0.00 34 1016.8
20260904114632 102 0.0 0.0 0.00 0.00 0.00 30 1017.0
20260904113632 101 0.0 0.0 0.00 0.00 0.00 31 1017.3
20260904112632 101 0.0 0.0 0.00 0.00 0.00 31 1017.4
20260904111632 100 0.0 0.0 0.00 0.00 0.00 32 1017.7
20260904110632 100 0.0 0.0 0.00 0.00 0.00 31 1017.6
20260904105632 100 0.0 0.0 0.00 0.00 0.00 31 1017.7
20260904104632 98 0.0 0.0 0.00 0.00 0.00 32 1017.9
20260904103632 98 0.0 0.0 0.00 0.00 0.00 32 1018.1
20260904102632 96 0.0 0.0 0.00 0.00 0.00 34 1018.3
20260904101632 95 0.0 0.0 0.00 0.00 0.00 34 1018.6
20260904100632 94 0.0 0.0 0.00 0.00 0.00 34 1018.7
20260904095632 93 0.0 0.0 0.00 0.00 0.00 34 1018.8
20260904094632 92 0.0 0.0 0.00 0.00 0.00 35 1018.9
20260904093632 91 0.0 0.0 0.00 0.00 0.00 37 1019.2
20260904091632 90 0.0 0.0 0.00 0.00 0.00 37 1019.3
20260904090632 89 0.0 0.0 0.00 0.00 0.00 39 1019.4
20260904085632 88 0.0 0.0 0.00 0.00 0.00 40 1019.4
20260904084632 88 0.0 0.0 0.00 0.00 0.00 42 1019.5
20260904083632 86 0.0 0.0 0.00 0.00 0.00 42 1019.5
20260904082632 86 0.0 0.0 0.00 0.00 0.00 49 1019.5
20260904081632 85 0.0 0.0 0.00 0.00 0.00 48 1019.6
20260904080632 83 0.0 0.0 0.00 0.00 0.00 50 1019.7
20260904075632 82 0.0 0.0 0.00 0.00 0.00 51 1019.7
20260904074632 81 0.0 0.0 0.00 0.00 0.00 57 1019.7
20260904073632 80 0.0 0.0 0.00 0.00 0.00 60 1019.9
20260904072632 79 0.0 0.0 0.00 0.00 0.00 61 1019.9
20260904071632 78 0.0 0.0 0.00 0.00 0.00 61 1020.2
20260904070632 77 0.0 0.0 0.00 0.00 0.00 62 1020.1
20260904065632 77 0.0 0.0 0.00 0.00 0.00 60 1020.0
20260904064632 76 0.0 0.0 0.00 0.00 0.00 61 1020.0
20260904063632 76 0.0 0.0 0.00 0.00 0.00 56 1019.7
20260904062632 75 0.0 0.0 0.00 0.00 0.00 59 1019.7
20260904061632 75 0.0 0.0 0.00 0.00 0.00 57 1019.6
20260904060632 76 0.0 0.0 0.00 0.00 0.00 55 1019.5
20260904055632 75 0.0 0.0 0.00 0.00 0.00 54 1019.5
20260904054632 76 0.0 0.0 0.00 0.00 0.00 52 1019.2
20260904053632 75 0.0 0.0 0.00 0.00 0.00 53 1019.3
20260904052632 76 0.0 0.0 0.00 0.00 0.00 53 1019.1
20260904051632 76 0.0 0.0 0.00 0.00 0.00 51 1019.1